星链-1020 (STARLINK-1020 )

导读 | 豆包AI

STARLINK-1020是美国太空探索技术公司(SpaceX)星链卫星互联网项目的卫星,于2019年11月11日发射,属于星链早期部署批次。星链计划旨在构建全球卫星互联网星座,该卫星入轨后,承担着星座技术验证与早期通信服务测试任务,推动了低轨巨型星座组网进程。

Basic Information
目录编号:
44725
目录名称:
STARLINK-1020
国际标识:
2019-074N
轨道中心:
EARTH
卫星名称:
星链-1020
卫星全名:
星链-1020 (STARLINK-1020 )
卫星状态:
在轨 (已飞行2315 天)
发射日期:
2019-11-11 UTC
国别 :
美国 (US)
星等 :
--
Orbit Information
数据来源 国际轨道数据 AOE轨道数据
星历时间 2026-03-13T15:50:13+0800
17小时前
查看轨道信息
2026-03-07T11:00:00+0800
6天前
查看轨道信息
半长轴 6853.354km 6853.41km
偏心率 0.0001247 0.0001049
轨道倾角 53.161° 53.159°
近地点辐角 74.096° 66.327°
升交点赤经 186.955° 215.760°
平近点角 286.018° 312.237°
近地点 474.362km 474.554km
远地点 476.072km 475.992km
周期 94.105分钟 94.107分钟
每日圈数 15.301995 15.301809
Detailed Information
固有亮度:
5
最大亮度:
2.5
卫星平台:
Starlink V1.0
覆盖范围:
全球
运营商:
太空探索技术公司
运营商所在国:
美国
制造商(研发单位):
太空探索技术公司
制造商所在国:
美国
使用方式:
暂无
Satellite Introduction
星链(Starlink)计划是由太空探索技术公司(SpaceX)提出的一个巨型低轨卫星互联网星座项目,计划在2019年至2024年间在太空搭建由约1.2万颗卫星组成的“星链”网络,其中1584颗将部署在地球上空550千米处的近地轨道,并从2020年开始工作。该卫星仍在工作。
2D Orbit Map
3D Orbit Map
Orbit Altitude Analysis Chart
Orbit Inclination Analysis Chart
Orbit Comprehensive Analysis Chart
View Comprehensive Chart